VA3BOO Weather Reports


time (UTC)temp
F
wind
direction
speed
knots
gust
knots
rain 1hr
in
rain 24hr
in
rain mn
in
humidity
%
barometer
mb
20260505193505 69 227 2.6 7.0 0.00 0.07 0.07 56 1002.5
20260505193005 70 251 2.6 7.8 0.00 0.07 0.07 56 1002.5
20260505192505 70 258 2.6 9.6 0.00 0.07 0.07 54 1002.5
20260505192005 70 221 3.5 13.9 0.00 0.07 0.07 55 1002.5
20260505191504 71 200 3.5 13.9 0.00 0.07 0.07 53 1002.3
20260505191004 71 232 2.6 6.1 0.00 0.07 0.07 53 1002.5
20260505190505 72 264 2.6 6.1 0.00 0.07 0.07 54 1002.5
20260505190005 72 286 2.6 9.6 0.00 0.07 0.07 53 1002.3
20260505185505 71 271 2.6 9.6 0.00 0.07 0.07 54 1002.2
20260505185005 72 251 2.6 7.8 0.00 0.07 0.07 52 1002.2
20260505184505 72 239 2.6 9.6 0.00 0.07 0.07 52 1002.4
20260505184005 72 232 2.6 9.6 0.00 0.07 0.07 53 1002.3
20260505183504 71 229 2.6 8.7 0.00 0.07 0.07 54 1002.3
20260505183005 70 205 2.6 7.8 0.00 0.07 0.07 54 1002.3
20260505182504 70 228 1.7 7.8 0.00 0.07 0.07 57 1002.4
20260505182005 69 230 2.6 7.8 0.00 0.07 0.07 58 1002.2
20260505181504 69 209 2.6 7.8 0.00 0.07 0.07 56 1002.3
20260505181004 69 214 2.6 7.0 0.00 0.07 0.07 57 1002.3
20260505180505 69 210 2.6 7.8 0.00 0.07 0.07 56 1002.1
20260505180004 68 260 2.6 11.3 0.00 0.07 0.07 57 1002.0
20260505175504 68 273 2.6 11.3 0.00 0.07 0.07 59 1002.1
20260505175004 68 250 2.6 7.8 0.00 0.07 0.07 59 1002.3
20260505174504 67 224 1.7 7.8 0.00 0.07 0.07 60 1002.3
20260505174005 68 233 1.7 7.0 0.00 0.07 0.07 60 1002.2
20260505173504 68 246 1.7 6.1 0.00 0.07 0.07 60 1002.2
20260505173004 68 244 2.6 12.2 0.00 0.07 0.07 59 1002.2
20260505172504 66 257 2.6 12.2 0.00 0.07 0.07 65 1002.2
20260505172004 65 294 1.7 6.1 0.00 0.07 0.07 64 1002.3
20260505171505 63 260 1.7 6.1 0.00 0.07 0.07 67 1002.2
20260505171005 62 224 1.7 6.1 0.00 0.07 0.07 68 1002.3
20260505170504 62 243 1.7 9.6 0.00 0.07 0.07 68 1002.5
20260505170005 62 242 2.6 9.6 0.00 0.07 0.07 68 1002.5
20260505165505 62 233 2.6 11.3 0.00 0.07 0.07 68 1002.5
20260505165004 62 234 2.6 11.3 0.00 0.07 0.07 67 1002.4
20260505164504 62 199 1.7 5.2 0.00 0.07 0.07 68 1002.3
20260505164004 62 202 0.9 3.5 0.00 0.07 0.07 67 1002.3
20260505163504 62 181 1.7 8.7 0.00 0.07 0.07 68 1002.3
20260505163004 62 188 2.6 8.7 0.00 0.07 0.07 67 1002.3
20260505162504 62 184 2.6 8.7 0.00 0.07 0.07 67 1002.1
20260505162005 62 202 2.6 7.0 0.00 0.07 0.07 68 1001.9
20260505161504 62 211 2.6 7.0 0.00 0.07 0.07 67 1001.7
20260505161004 62 225 1.7 7.0 0.00 0.07 0.07 68 1001.7
20260505160505 61 209 1.7 11.3 0.00 0.07 0.07 69 1001.7
20260505153004 63 200 1.7 7.8 0.00 0.07 0.07 67 1001.8
20260505152504 64 193 1.7 7.8 0.00 0.07 0.07 67 1001.7
20260505152004 64 168 1.7 7.0 0.00 0.07 0.07 66 1001.7
20260505151505 64 190 1.7 7.0 0.00 0.07 0.07 65 1001.8
20260505151004 65 209 1.7 7.0 0.00 0.07 0.07 64 1001.7
20260505150504 65 215 2.6 7.0 0.00 0.07 0.07 64 1001.5
20260505140504 64 153 2.6 11.3 0.00 0.07 0.07 66 1000.6
20260505125004 62 223 1.7 7.8 0.00 0.07 0.07 71 1000.4
20260505124504 62 221 1.7 8.7 0.00 0.07 0.07 69 1000.5
20260505124004 62 165 1.7 8.7 0.00 0.07 0.07 72 1000.6
20260505123504 61 160 1.7 8.7 0.00 0.07 0.07 73 1000.2
20260505123004 60 185 0.9 6.1 0.00 0.07 0.07 75 1000.7
20260505122504 59 191 0.9 6.1 0.00 0.07 0.07 76 1000.4
20260505122004 59 177 0.9 3.5 0.00 0.07 0.07 79 1000.4
20260505121504 58 158 1.7 3.5 0.00 0.07 0.07 78 1000.5
20260505121004 58 170 0.9 3.5 0.00 0.07 0.07 81 1000.5
20260505120504 59 180 0.9 5.2 0.00 0.07 0.07 82 1000.6
20260505120005 60 172 0.9 5.2 0.00 0.07 0.07 77 1000.9
20260505115504 60 163 0.9 3.5 0.00 0.07 0.07 76 1000.8
20260505115004 60 173 0.9 2.6 0.00 0.07 0.07 74 1000.5
20260505114504 61 187 2.6 8.7 0.00 0.08 0.07 74 1000.6
20260505114004 61 167 3.5 9.6 0.00 0.10 0.07 75 1000.5
20260505113504 60 169 2.6 9.6 0.00 0.10 0.07 76 1000.4
20260505113005 59 211 1.7 7.8 0.00 0.10 0.07 78 1000.6
20260505112504 58 291 1.7 5.2 0.00 0.10 0.07 80 1000.3
20260505112004 59 292 1.7 5.2 0.00 0.10 0.07 80 1000.6
20260505111504 58 275 1.7 5.2 0.00 0.10 0.07 81 1000.5
20260505111004 57 264 0.9 5.2 0.00 0.10 0.07 83 1000.4
20260505110504 56 236 0.9 2.6 0.00 0.10 0.07 85 1000.3
20260505102004 54 212 0.0 1.7 0.01 0.10 0.07 90 1000.1
20260505101504 54 210 0.0 1.7 0.01 0.10 0.07 89 1000.3
20260505101004 54 198 0.0 2.6 0.04 0.10 0.07 89 1000.0
20260505100504 54 168 0.9 2.6 0.06 0.10 0.07 89 1000.2
20260505100004 54 176 0.9 2.6 0.07 0.10 0.07 88 1000.2
20260505095504 54 178 0.9 2.6 0.07 0.10 0.07 89 1000.5
20260505095004 54 158 0.9 3.5 0.07 0.10 0.07 89 1000.3
20260505094504 54 161 0.9 3.5 0.07 0.10 0.07 88 1000.3
20260505094004 55 220 0.9 5.2 0.07 0.10 0.07 87 1000.2
20260505093504 55 217 1.7 7.0 0.07 0.10 0.07 87 1000.0
20260505093004 55 221 1.7 7.0 0.06 0.09 0.06 87 1000.0
20260505092504 55 209 1.7 6.1 0.06 0.09 0.06 88 1000.0
20260505092004 54 151 0.9 5.2 0.06 0.09 0.06 88 1000.2
20260505091504 55 164 0.9 5.2 0.06 0.09 0.06 85 1000.2
20260505091004 56 167 0.9 5.2 0.03 0.06 0.03 81 1000.7
20260505090504 57 163 1.7 5.2 0.01 0.04 0.01 76 1000.4
20260505090004 57 159 1.7 5.2 0.00 0.03 0.00 74 1000.5
20260505085504 57 160 1.7 5.2 0.00 0.03 0.00 74 1000.4
20260505085004 56 174 0.9 3.5 0.00 0.03 0.00 76 1000.5
20260505084504 56 195 0.9 3.5 0.00 0.03 0.00 76 1000.5
20260505084004 56 174 0.9 3.5 0.00 0.03 0.00 75 1000.6
20260505083504 56 152 0.9 3.5 0.00 0.03 0.00 75 1000.9
20260505083005 56 146 0.9 3.5 0.00 0.03 0.00 75 1000.7
20260505082504 56 152 1.7 3.5 0.00 0.03 0.00 75 1001.0
20260505082004 55 175 1.7 5.2 0.00 0.03 0.00 74 1001.0
20260505081504 55 197 0.9 5.2 0.00 0.03 0.00 75 1000.8
20260505081004 55 214 0.9 6.1 0.00 0.03 0.00 76 1000.9
20260505080504 55 216 0.9 6.1 0.00 0.03 0.00 75 1001.1
20260505080004 55 178 0.9 2.6 0.00 0.03 0.00 75 1000.9
20260505075504 54 172 0.9 2.6 0.00 0.03 0.00 75 1000.9
20260505075004 54 250 0.9 1.7 0.00 0.03 0.00 76 1000.9
20260505074504 54 302 0.0 1.7 0.00 0.03 0.00 77 1001.0
20260505074004 54 164 0.9 1.7 0.00 0.03 0.00 78 1001.1
20260505073504 53 220 0.9 2.6 0.00 0.03 0.00 80 1001.2
20260505073004 53 190 0.9 5.2 0.00 0.03 0.00 82 1001.1
20260505072504 53 100 1.7 5.2 0.00 0.03 0.00 82 1001.0
20260505072004 52 40 0.9 2.6 0.00 0.03 0.00 85 1001.0
20260505071504 53 181 0.9 2.6 0.00 0.03 0.00 85 1001.1
20260505071004 53 183 0.9 1.7 0.00 0.03 0.00 85 1000.9
20260505070504 53 174 0.9 3.5 0.00 0.03 0.00 85 1000.9
20260505070004 53 169 0.9 3.5 0.00 0.03 0.00 85 1000.9
20260505065504 54 174 0.9 2.6 0.00 0.03 0.00 85 1000.9
20260505065004 54 190 0.9 7.0 0.00 0.03 0.00 83 1001.0
20260505064504 55 178 1.7 7.8 0.00 0.03 0.00 79 1001.1
20260505064004 56 160 1.7 7.8 0.00 0.03 0.00 76 1000.7
20260505063504 55 172 0.9 3.5 0.00 0.03 0.00 72 1001.3
20260505063004 55 219 0.0 1.7 0.00 0.03 0.00 68 1001.2
20260505062504 55 200 0.0 2.6 0.00 0.03 0.00 67 1001.0
20260505062004 55 213 0.0 2.6 0.00 0.03 0.00 67 1001.1
20260505061504 55 212 0.9 2.6 0.00 0.03 0.00 66 1000.7
20260505061004 55 202 0.9 2.6 0.00 0.03 0.00 66 1000.8
20260505060504 55 220 0.9 2.6 0.00 0.03 0.00 65 1000.8
20260505060004 55 229 0.9 2.6 0.00 0.03 0.00 66 1000.9
20260505055504 55 212 0.9 2.6 0.00 0.03 0.00 65 1000.9
20260505055004 54 204 0.0 5.2 0.00 0.03 0.00 66 1000.9
20260505054504 54 211 0.0 5.2 0.00 0.03 0.00 66 1000.9
20260505054004 53 286 0.9 2.6 0.00 0.03 0.00 67 1001.1
20260505053504 53 280 0.9 2.6 0.00 0.03 0.00 68 1001.0
20260505053004 53 256 0.0 2.6 0.00 0.03 0.00 68 1001.0
20260505052504 53 198 0.0 0.9 0.00 0.03 0.00 69 1001.0
20260505052004 53 189 0.0 0.9 0.00 0.03 0.00 68 1000.9
20260505051504 52 163 0.0 0.9 0.00 0.03 0.00 68 1001.0
20260505051004 52 0 0.0 0.0 0.00 0.03 0.00 68 1001.2
20260505050504 52 0 0.0 0.0 0.00 0.03 0.00 69 1001.1
20260505041504 52 0 0.0 0.0 0.00 0.03 0.00 66 1001.7
20260505041004 52 0 0.0 0.0 0.00 0.03 0.00 66 1001.8
20260505040504 53 0 0.0 0.0 0.00 0.03 0.00 66 1001.7
20260505040005 53 0 0.0 0.0 0.00 0.03 0.00 66 1001.8
20260505035504 53 0 0.0 0.0 0.00 0.03 0.03 65 1001.8
20260505035004 53 0 0.0 0.0 0.00 0.03 0.03 65 1001.7
20260505034504 53 0 0.0 0.0 0.00 0.03 0.03 65 1001.7
20260505034004 53 0 0.0 0.0 0.00 0.03 0.03 65 1001.8
20260505033504 53 0 0.0 0.0 0.00 0.03 0.03 64 1001.8
20260505033004 53 0 0.0 0.0 0.00 0.03 0.03 65 1001.8
20260505032504 53 0 0.0 0.0 0.00 0.03 0.03 66 1001.9
20260505032004 53 0 0.0 0.0 0.00 0.03 0.03 67 1001.9
20260505031504 53 0 0.0 0.0 0.00 0.03 0.03 67 1001.9
20260505031004 53 0 0.0 0.0 0.00 0.03 0.03 67 1002.1
20260505030504 53 0 0.0 0.0 0.00 0.03 0.03 67 1002.0
20260505030004 53 0 0.0 0.0 0.00 0.03 0.03 66 1002.2
20260505025504 53 0 0.0 0.0 0.00 0.03 0.03 67 1002.1
20260505025004 53 0 0.0 0.0 0.00 0.03 0.03 68 1002.0
20260505024504 53 163 0.0 0.9 0.00 0.03 0.03 68 1002.0
20260505024004 53 163 0.0 0.9 0.00 0.03 0.03 68 1002.1
20260505023504 53 163 0.0 0.9 0.00 0.03 0.03 69 1002.0
20260505023004 53 163 0.0 0.9 0.00 0.03 0.03 69 1002.3
20260505022504 54 0 0.0 0.0 0.00 0.03 0.03 68 1002.1
20260505022004 54 163 0.0 0.9 0.00 0.03 0.03 67 1002.2
20260505021504 54 163 0.0 0.9 0.00 0.03 0.03 67 1002.1
20260505021004 54 163 0.0 0.9 0.00 0.03 0.03 68 1002.6
20260505020504 54 163 0.0 0.9 0.00 0.03 0.03 66 1002.3
20260505020004 54 163 0.0 0.9 0.00 0.03 0.03 67 1002.2
20260505015504 54 0 0.0 0.0 0.00 0.03 0.03 66 1002.4
20260505015004 55 163 0.0 0.9 0.00 0.03 0.03 65 1002.3
20260505014504 55 163 0.0 0.9 0.00 0.03 0.03 66 1002.3
20260505014004 56 163 0.0 0.9 0.00 0.03 0.03 65 1002.3
20260505013504 56 163 0.0 0.9 0.00 0.03 0.03 64 1002.3
20260505013004 56 163 0.9 0.9 0.00 0.03 0.03 63 1002.3
20260505012504 56 163 0.0 0.9 0.00 0.03 0.03 63 1002.5
20260505012004 56 163 0.0 0.9 0.00 0.03 0.03 64 1002.5
20260505011504 56 163 0.0 0.9 0.00 0.03 0.03 62 1002.4
20260505011004 57 163 0.0 0.9 0.00 0.03 0.03 62 1002.5
20260505010504 57 163 0.0 0.9 0.00 0.03 0.03 62 1002.5
20260505010004 57 0 0.0 0.0 0.00 0.03 0.03 61 1002.6
20260505005504 57 0 0.0 0.0 0.00 0.03 0.03 61 1002.5
20260505005004 58 0 0.0 0.0 0.00 0.03 0.03 61 1002.6
20260505004504 58 163 0.0 0.9 0.00 0.03 0.03 60 1002.6
20260505004004 58 163 0.0 0.9 0.00 0.03 0.03 59 1002.6
20260505003504 58 163 0.0 0.9 0.00 0.03 0.03 60 1002.4
20260505003004 58 163 0.0 0.9 0.00 0.03 0.03 59 1002.3
20260505002504 58 163 0.0 1.7 0.00 0.03 0.03 60 1002.4
20260505002004 59 149 0.0 1.7 0.00 0.03 0.03 59 1002.5
20260505001504 59 134 0.0 1.7 0.00 0.03 0.03 59 1002.4
20260505001004 59 147 0.0 1.7 0.00 0.03 0.03 58 1002.5
20260505000504 59 174 0.0 1.7 0.00 0.03 0.03 59 1002.3
20260505000004 60 192 0.0 0.9 0.00 0.03 0.03 58 1002.1
20260504235504 60 192 0.0 0.9 0.00 0.03 0.03 57 1002.1
20260504235004 60 192 0.0 0.9 0.00 0.03 0.03 58 1002.1
20260504234504 60 186 0.0 0.9 0.00 0.03 0.03 58 1002.2
20260504234004 60 149 0.0 0.9 0.00 0.03 0.03 57 1002.3
20260504233504 60 141 0.0 0.9 0.00 0.03 0.03 57 1002.2
20260504233004 60 141 0.0 0.9 0.00 0.03 0.03 57 1002.0
20260504232504 60 141 0.0 0.9 0.00 0.03 0.03 57 1002.0
20260504232004 60 167 0.0 2.6 0.00 0.03 0.03 57 1002.0
20260504231504 61 204 0.0 2.6 0.00 0.03 0.03 57 1002.2
20260504231004 61 211 0.0 0.9 0.00 0.03 0.03 56 1002.3
20260504230504 61 155 0.0 1.7 0.00 0.03 0.03 56 1002.1
20260504230004 62 150 0.9 1.7 0.00 0.03 0.03 55 1002.2
20260504225504 62 153 0.9 1.7 0.00 0.03 0.03 54 1002.3
20260504225004 62 169 0.0 1.7 0.00 0.03 0.03 54 1002.2
20260504224504 62 166 0.0 1.7 0.00 0.03 0.03 53 1002.3
20260504224004 63 145 0.9 2.6 0.00 0.03 0.03 52 1002.4
20260504223504 63 160 0.9 2.6 0.00 0.03 0.03 51 1002.4
20260504223004 63 175 0.9 1.7 0.00 0.03 0.03 50 1002.4
20260504222504 64 191 0.9 1.7 0.00 0.03 0.03 50 1002.4
20260504222004 64 179 0.9 3.5 0.00 0.03 0.03 49 1002.4
20260504221504 66 188 0.9 3.5 0.00 0.03 0.03 46 1002.5
20260504221004 66 203 0.9 2.6 0.00 0.03 0.03 45 1002.4
20260504220504 67 208 0.9 2.6 0.00 0.03 0.03 46 1002.5
20260504220004 67 208 0.9 2.6 0.00 0.03 0.03 44 1002.6
20260504215504 67 185 0.9 3.5 0.00 0.03 0.03 45 1002.5
20260504215004 66 178 0.9 3.5 0.00 0.03 0.03 44 1002.7
20260504214504 66 199 0.9 3.5 0.00 0.03 0.03 46 1002.7
20260504214004 65 239 0.9 5.2 0.00 0.03 0.03 45 1002.8
20260504213504 65 224 0.9 5.2 0.00 0.03 0.03 47 1002.8
20260504213004 65 199 0.9 3.5 0.00 0.03 0.03 46 1002.8
20260504212504 66 164 0.9 2.6 0.00 0.03 0.03 45 1002.8
20260504212004 66 175 0.9 2.6 0.00 0.03 0.03 46 1002.8
20260504211504 66 201 0.9 2.6 0.00 0.03 0.03 45 1002.7
20260504211004 66 191 0.9 1.7 0.00 0.03 0.03 45 1002.9
20260504210504 65 177 0.9 3.5 0.00 0.03 0.03 46 1002.8
20260504210004 65 172 1.7 5.2 0.00 0.03 0.03 47 1002.9
20260504205504 65 184 1.7 5.2 0.00 0.03 0.03 46 1002.9
20260504205004 66 182 0.9 3.5 0.00 0.03 0.03 46 1003.1
20260504204504 66 175 1.7 6.1 0.00 0.03 0.03 46 1003.0
20260504204004 66 190 0.9 6.1 0.00 0.03 0.03 46 1003.0
20260504203504 66 175 1.7 5.2 0.00 0.03 0.03 46 1003.2
20260504203004 65 171 1.7 5.2 0.00 0.03 0.03 46 1003.3
20260504202504 65 190 1.7 3.5 0.00 0.03 0.03 46 1003.3
20260504202004 66 176 1.7 5.2 0.00 0.03 0.03 45 1003.0
20260504201504 66 171 1.7 5.2 0.00 0.03 0.03 45 1003.3
20260504201004 67 201 1.7 6.1 0.00 0.03 0.03 45 1003.4
20260504200504 66 206 1.7 6.1 0.00 0.03 0.03 46 1003.3
20260504200004 66 180 1.7 3.5 0.00 0.03 0.03 45 1003.4
20260504195503 66 146 1.7 3.5 0.00 0.03 0.03 46 1003.4
20260504195004 66 137 1.7 3.5 0.00 0.03 0.03 45 1003.5
20260504194504 66 159 1.7 6.1 0.00 0.03 0.03 45 1003.7
20260504194004 66 184 1.7 6.1 0.00 0.03 0.03 45 1003.6